User: anonymous   Login
Location: Hamilton Branch State Park
(33.7552°N, 82.2209°W)
Time: 01:54:57
(UTC-05:00)
Language:

KAITUO 1B - Orbit

View from above orbital plane
View from above orbital plane
View from above satellite
View from above satellite

Ground track
Ground track

The orbit data is extracted from the following two-line orbital elements,

1 40912U 15049P   19320.87790934  .00001233  00000-0  60533-4 0  9997
2 40912  97.4504 326.3005 0015275  11.4917  59.7131 15.19879035230277
Epoch (UTC): 16 November 2019 21:04:11
Eccentricity: 0.0015275
inclination: 97.4504°
perigee height: 495 km
apogee height: 517 km
right ascension of ascending node: 326.3005°
argument of perigee: 11.4917°
revolutions per day: 15.19879035
mean anomaly at epoch: 59.7131°
orbit number at epoch: 23027

The dashed part of the orbit path shows where the satellite is in the earth's shadow,  

DLR